Terug naar catalogus

FENGYUN 1C DEB

ActiefPO
NORAD 38144·DEBRIS·🇨🇳 China

Gelanceerd May 10, 1999 vanaf Taiyuan Satellite Launch Center

Loading…

Volgende Passages (komende 24 uur)

TLE

VerouderdSource: Space-Track

Epoch: Aug 26, 2026, 06:06 UTC

1 38144U 99025EQR 26238.25434255  .00001015  00000-0  10841-2 0  9999
2 38144  98.9863  46.6094 0287987 247.9915 109.0403 13.59614696645228

Volg FENGYUN 1C DEB in realtime met AllMySat

Download on the App Store